Regional Weather Roundup
Issued by NWS Charleston, WV

Home | Current Version | Previous Version | Text Only | Print | Product List | Glossary Off
Versions: 1 2 3 4 5 6 7 8 9 10 11 12 13 14 15 16 17 18 19 20 21 22 23 24 25 26 27 28 29 30 31 32 33 34 35 36 37 38 39 40 41 42 43 44 45 46 47 48 49 50

000
ASUS41 KRLX 010510
RWRRLX
West Virginia Regional Weather Roundup
National Weather Service Charleston WV
1200 AM EST SUN MAR 01 2015

Note: "fair" indicates few or no clouds below 12,000 feet with no
significant weather and/or obstructions to visibility.

WVZ003-010600-
Northern Panhandle of West Virginia

CITY           SKY/WX    TMP DP  RH WIND       PRES   REMARKS
WHEELING       CLOUDY    24   3  40 E3        30.50F
$$

WVZ009-010600-
Northwest West Virginia

CITY           SKY/WX    TMP DP  RH WIND       PRES   REMARKS
PARKERSBURG    CLOUDY    30  12  47 CALM      30.52F
$$

WVZ006-010600-
Western West Virginia

CITY           SKY/WX    TMP DP  RH WIND       PRES   REMARKS
HUNTINGTON     CLOUDY    31  15  52 N3        30.46F
$$

WVZ015-010600-
West Central West Virginia

CITY           SKY/WX    TMP DP  RH WIND       PRES   REMARKS
CHARLESTON     MOCLDY    29  20  69 CALM      30.45F
$$

WVZ022-031-010600-
North Central West Virginia

CITY           SKY/WX    TMP DP  RH WIND       PRES   REMARKS
CLARKSBURG     CLOUDY    27  14  58 CALM      30.47F
MORGANTOWN     CLOUDY    30   8  39 E3        30.48F
$$

WVZ025-035-042-045-010600-
Southern West Virginia

CITY           SKY/WX    TMP DP  RH WIND       PRES   REMARKS
BECKLEY        CLOUDY    29  15  56 SE16G24   30.46F
LOGAN          CLOUDY    37  21  52 CALM      30.40F
BLUEFIELD      CLOUDY    31  16  54 S10G26    30.48S
LEWISBURG      PTCLDY    23  14  69 CALM      30.53F
$$

WVZ047-010600-
Northern Mountains of West Virginia

CITY           SKY/WX    TMP DP  RH WIND       PRES   REMARKS
ELKINS         PTCLDY    20  15  81 CALM      30.48F
$$

WVZ052-010600-
Eastern Panhandle of West Virginia

CITY           SKY/WX    TMP DP  RH WIND       PRES   REMARKS
MARTINSBURG    PTCLDY    20  10  65 CALM      30.66F
PETERSBURG     CLEAR     20  14  76 CALM      30.61F
$$


USA.gov is the U.S. government's official web portal to all federal, state and local government web resources and services.